Vorticity
13 11 20 39 21 30 52 53 27 -1 1 8 18 -0 48 22 48 -1 5 40 55 28 5 14 -12 43 -14 -41 24 30 -16 5 -3 12 18 7 23 19 13 2 -3 3 -2
21 30 21 28 32 48 41 13 -20 8 5 -1 21 9 -6 34 57 41 31 18 20 41 18 51 -51 -14 21 22 -28 -2 4 22 26 4 9 6 29 7 17 10 4 2 6
20 16 36 31 42 32 19 10 8 4 11 20 34 26 39 33 19 21 33 21 9 19 35 47 19 48 16 14 25 56 -9 7 24 13 22 6 8 26 -3 21 9 7 9
13 43 29 40 15 -16 7 16 4 0 15 3 6 0 1 0 15 21 23 30 25 2 8 -10 43 4 6 20 27 32 22 8 20 14 8 34 11 -23 11 7 8 8 5
32 31 32 6 11 5 8 3 -1 -0 7 11 5 2 5 8 10 10 6 15 41 58 26 29 23 8 25 11 21 8 26 32 -10 7 29 6 6 25 14 7 8 6 12
26 25 8 10 8 6 6 -3 -1 -4 15 17 13 11 9 11 7 9 9 7 11 9 8 30 48 26 -6 -15 -13 -0 19 11 39 25 11 -10 26 2 10 3 11 3 6
16 15 -2 16 16 10 6 13 31 5 15 9 8 8 7 6 7 8 8 12 9 6 12 11 16 37 14 15 13 13 3 -8 2 27 23 12 23 34 -1 18 8 10 3
20 10 11 12 2 3 13 12 -5 11 7 6 9 7 7 6 5 6 9 8 7 9 12 7 6 11 19 32 20 19 -3 3 19 13 15 38 -6 22 43 18 1 7 4
8 10 11 18 1 -5 10 2 8 9 8 7 9 7 6 4 5 8 10 9 10 12 10 9 12 4 13 5 8 11 21 24 4 3 3 18 -3 -1 7 19 17 24 8
12 5 3 12 18 1 9 13 11 7 10 9 6 8 8 5 9 7 5 5 7 15 22 26 11 9 9 1 6 5 9 7 13 23 19 22 14 14 -4 -0 -0 16 17
10 9 9 9 10 10 11 12 9 7 9 8 8 9 3 6 4 3 -5 6 8 15 12 20 25 28 8 10 10 0 3 7 9 7 12 21 7 -0 13 10 7 -11 15
10 9 7 11 13 8 9 11 10 10 7 8 8 8 6 3 2 -0 -2 0 7 15 -4 28 8 24 27 22 2 9 11 11 4 5 7 10 6 27 8 -7 4 4 -12
9 8 7 7 10 9 6 8 9 10 9 7 8 5 4 6 2 3 3 5 -2 0 1 8 14 42 21 36 24 12 7 14 15 9 13 2 13 2 25 24 -8 10 -7
11 8 7 6 7 7 9 8 9 7 10 9 10 10 5 6 6 2 5 4 3 5 5 -9 18 31 28 41 33 40 15 12 2 1 12 1 11 2 14 9 25 1 4
19 11 12 7 7 8 7 7 7 8 8 8 10 9 8 5 6 8 6 4 5 1 4 -0 17 19 38 39 35 43 22 7 -12 -13 15 15 14 5 22 22 16 24 2
21 23 13 10 14 13 9 7 7 6 7 8 9 9 11 14 13 11 12 11 8 2 3 1 -0 19 37 34 24 23 40 34 25 32 21 14 17 30 17 15 17 37 -3
17 24 15 25 5 9 7 16 13 8 6 5 5 6 7 7 8 9 8 8 4 10 7 -2 9 23 38 27 13 20 31 24 23 29 18 23 35 35 24 22 9 25 14
5 12 6 12 16 14 10 15 8 6 6 7 8 7 7 5 4 4 3 3 4 6 6 7 -3 21 35 27 12 17 17 27 28 30 22 10 6 2 24 -1 18 7 6
6 12 15 17 12 16 17 15 17 18 19 15 9 10 7 5 3 11 10 9 8 8 6 4 4 20 24 33 15 12 -2 20 19 5 -4 10 12 12 35 3 17 4 13
5 -10 2 8 4 4 4 5 8 13 14 14 15 14 19 3 1 11 13 10 9 6 4 8 12 15 19 43 23 11 5 2 -4 22 23 -1 18 9 13 15 25 10 1
-4 4 -10 -12 14 0 7 4 7 3 5 5 6 13 13 15 5 4 9 8 7 9 10 11 12 14 10 45 15 21 21 -8 23 25 15 15 2 -16 19 13 10 8 10
14 6 8 10 10 7 6 1 6 5 4 1 8 9 5 6 15 9 6 5 3 5 9 5 8 15 10 42 18 13 5 18 19 2 7 11 23 30 23 20 -1 4 7
27 29 31 35 29 28 12 8 7 5 6 8 7 4 9 8 11 7 6 10 1 6 7 16 3 14 9 29 30 10 9 12 12 14 15 5 10 8 23 -1 -1 7 6
21 24 23 21 25 25 24 25 19 8 5 3 7 7 7 12 10 4 11 5 3 2 5 14 8 8 9 20 36 14 7 10 20 11 11 18 19 17 14 9 11 14 12
21 22 26 24 21 22 21 21 25 33 37 33 21 16 10 10 11 10 9 3 6 3 -1 3 12 8 12 14 30 22 7 14 17 14 5 25 11 16 28 27 17 15 7
12 13 19 22 24 25 26 24 19 21 24 19 19 33 38 25 17 16 16 15 3 -6 2 4 10 10 14 7 25 28 9 11 12 7 11 15 14 16 10 12 13 31 44
Height
5616 5605 5594 5583 5569 5558 5550 5543 5538 5534 5528 5522 5516 5511 5502 5498 5495 5496 5500 5504 5511 5520 5530 5536 5543 5548 5558 5565 5574 5583 5591 5599 5605 5615 5624 5632 5637 5642 5647 5656 5662 5667 5674
5596 5586 5575 5565 5552 5543 5539 5536 5533 5528 5522 5516 5510 5504 5496 5490 5485 5486 5488 5492 5497 5502 5512 5520 5526 5535 5541 5548 5558 5566 5577 5582 5590 5598 5607 5614 5623 5629 5632 5642 5649 5655 5661
5579 5570 5560 5549 5540 5535 5533 5531 5528 5523 5518 5511 5504 5499 5493 5488 5483 5480 5479 5483 5488 5492 5497 5505 5516 5523 5530 5534 5541 5549 5560 5564 5573 5581 5591 5597 5605 5612 5617 5627 5634 5641 5649
5565 5555 5545 5539 5536 5532 5529 5525 5523 5518 5514 5509 5504 5498 5494 5488 5482 5478 5476 5476 5479 5483 5487 5493 5504 5511 5518 5521 5526 5533 5542 5551 5558 5566 5569 5579 5587 5597 5601 5611 5618 5627 5634
5551 5542 5535 5533 5531 5528 5524 5521 5517 5514 5510 5507 5503 5499 5493 5489 5485 5481 5478 5477 5476 5477 5480 5482 5488 5498 5505 5505 5514 5522 5527 5536 5545 5550 5555 5563 5572 5578 5588 5595 5603 5613 5620
5539 5534 5529 5527 5524 5521 5519 5516 5512 5509 5505 5502 5499 5496 5492 5488 5486 5484 5481 5479 5478 5477 5476 5476 5479 5485 5492 5498 5504 5508 5515 5522 5528 5538 5543 5550 5558 5565 5574 5582 5588 5597 5605
5530 5527 5524 5519 5517 5513 5511 5509 5505 5503 5500 5497 5493 5491 5488 5486 5484 5483 5482 5480 5479 5478 5478 5477 5475 5477 5481 5486 5493 5498 5504 5510 5517 5523 5528 5541 5545 5551 5561 5568 5577 5588 5596
5521 5518 5516 5512 5509 5506 5504 5502 5499 5496 5494 5491 5488 5486 5483 5481 5480 5479 5479 5478 5476 5476 5476 5476 5476 5475 5475 5477 5482 5487 5493 5497 5504 5515 5521 5525 5534 5541 5548 5557 5567 5572 5581
5511 5508 5505 5502 5500 5497 5495 5494 5491 5488 5486 5483 5482 5479 5477 5475 5473 5472 5471 5470 5470 5469 5468 5468 5469 5470 5470 5472 5476 5478 5482 5487 5491 5499 5507 5514 5520 5529 5534 5540 5546 5554 5565
5499 5496 5493 5490 5488 5485 5484 5482 5480 5479 5476 5475 5473 5471 5470 5467 5466 5465 5464 5463 5462 5460 5458 5458 5458 5459 5461 5464 5467 5471 5476 5479 5481 5485 5494 5502 5507 5513 5518 5527 5534 5542 5549
5485 5482 5479 5478 5475 5473 5471 5470 5468 5467 5466 5465 5463 5462 5461 5460 5458 5457 5456 5455 5454 5452 5450 5447 5444 5445 5448 5451 5454 5459 5463 5467 5472 5474 5479 5487 5494 5501 5509 5516 5524 5531 5537
5471 5468 5465 5463 5461 5460 5458 5457 5457 5456 5455 5454 5453 5451 5451 5450 5448 5447 5446 5445 5444 5442 5439 5436 5433 5431 5431 5434 5438 5442 5447 5452 5458 5463 5468 5476 5484 5492 5501 5506 5513 5519 5528
5456 5453 5451 5448 5447 5446 5445 5444 5443 5443 5442 5441 5441 5441 5440 5438 5437 5436 5435 5433 5432 5430 5427 5423 5418 5414 5411 5413 5417 5425 5432 5438 5445 5451 5458 5465 5471 5477 5481 5488 5494 5502 5512
5439 5437 5434 5433 5432 5430 5430 5429 5429 5429 5429 5428 5428 5428 5428 5426 5426 5425 5424 5422 5420 5417 5414 5409 5403 5398 5394 5391 5393 5402 5412 5422 5431 5437 5443 5450 5455 5462 5467 5475 5481 5489 5498
5423 5419 5417 5417 5416 5415 5414 5414 5414 5413 5414 5414 5414 5414 5414 5413 5413 5413 5412 5411 5409 5407 5403 5398 5392 5385 5378 5373 5375 5382 5393 5404 5414 5420 5427 5435 5442 5449 5455 5460 5466 5475 5484
5402 5400 5399 5399 5398 5398 5398 5398 5398 5399 5399 5399 5399 5400 5400 5400 5400 5399 5399 5398 5397 5395 5391 5388 5382 5375 5369 5366 5367 5371 5377 5385 5394 5401 5410 5417 5424 5432 5439 5446 5454 5462 5470
5383 5382 5379 5379 5380 5380 5380 5381 5382 5382 5383 5384 5384 5385 5386 5387 5385 5386 5386 5386 5385 5384 5381 5378 5373 5368 5362 5361 5362 5364 5367 5372 5379 5386 5394 5402 5409 5418 5427 5437 5445 5450 5458
5364 5363 5362 5362 5361 5362 5362 5363 5365 5367 5368 5368 5368 5370 5371 5373 5373 5373 5374 5375 5374 5372 5371 5369 5365 5361 5356 5355 5356 5359 5362 5366 5371 5378 5386 5394 5402 5410 5419 5427 5433 5441 5448
5344 5343 5343 5343 5343 5343 5344 5344 5346 5348 5350 5353 5354 5354 5355 5358 5360 5360 5361 5362 5363 5362 5361 5359 5357 5354 5351 5350 5351 5356 5359 5363 5368 5374 5380 5387 5394 5401 5408 5416 5422 5429 5438
5324 5322 5320 5322 5324 5325 5326 5327 5328 5330 5331 5334 5336 5338 5340 5343 5345 5346 5347 5349 5350 5350 5350 5350 5348 5346 5344 5343 5345 5349 5354 5359 5363 5369 5375 5380 5386 5393 5400 5406 5412 5421 5430
5301 5301 5300 5300 5302 5304 5306 5307 5309 5311 5313 5316 5319 5320 5322 5326 5329 5332 5334 5335 5337 5338 5339 5340 5339 5337 5336 5335 5337 5341 5346 5352 5356 5361 5366 5373 5379 5386 5393 5398 5404 5412 5419
5276 5275 5275 5276 5278 5279 5281 5284 5286 5289 5292 5296 5300 5303 5305 5308 5312 5316 5319 5322 5324 5326 5327 5329 5329 5328 5327 5326 5329 5333 5338 5344 5349 5354 5359 5365 5370 5376 5383 5390 5397 5405 5412
5253 5251 5249 5249 5250 5252 5255 5258 5261 5265 5269 5273 5277 5282 5286 5290 5294 5299 5302 5306 5310 5313 5315 5317 5318 5318 5318 5318 5320 5325 5330 5336 5341 5346 5351 5357 5362 5368 5374 5381 5389 5396 5403
5235 5232 5229 5228 5228 5227 5229 5231 5234 5238 5243 5248 5252 5258 5263 5268 5274 5280 5285 5290 5295 5299 5303 5305 5307 5309 5309 5309 5311 5316 5322 5327 5332 5338 5343 5347 5352 5358 5364 5370 5378 5385 5391
5219 5214 5211 5208 5206 5206 5205 5205 5207 5211 5216 5221 5225 5231 5237 5244 5252 5259 5266 5272 5279 5285 5289 5293 5295 5298 5299 5301 5303 5307 5313 5319 5324 5330 5335 5340 5344 5348 5352 5358 5365 5371 5378
5204 5198 5193 5188 5186 5184 5184 5184 5186 5188 5191 5196 5201 5205 5211 5218 5226 5235 5244 5252 5261 5268 5274 5280 5284 5287 5289 5292 5295 5298 5305 5311 5317 5323 5327 5331 5336 5340 5343 5347 5352 5357 5363